| time (UTC) | temp F | wind direction | speed knots | gust knots | rain 1hr in | rain 24hr in | rain mn in | humidity % | barometer mb |
| 20260905025550 | 87 | 154 | 13.0 | 13.9 | 0.00 | 0.00 | 0.00 | 39 | 1015.3 |
| 20260905025041 | 88 | 152 | 11.3 | 14.8 | 0.00 | 0.00 | 0.00 | 38 | 1015.1 |
| 20260905024536 | 88 | 156 | 10.4 | 13.0 | 0.00 | 0.00 | 0.00 | 38 | 1015.1 |
| 20260905024031 | 88 | 155 | 6.1 | 13.9 | 0.00 | 0.00 | 0.00 | 39 | 1015.1 |
| 20260905023526 | 87 | 161 | 7.0 | 11.3 | 0.00 | 0.00 | 0.00 | 40 | 1015.1 |
| 20260905023021 | 87 | 155 | 6.1 | 11.3 | 0.00 | 0.00 | 0.00 | 41 | 1014.9 |
| 20260905022520 | 88 | 145 | 7.0 | 11.3 | 0.00 | 0.00 | 0.00 | 39 | 1014.8 |
| 20260905022016 | 88 | 137 | 9.6 | 13.0 | 0.00 | 0.00 | 0.00 | 39 | 1014.6 |
| 20260905021515 | 88 | 137 | 6.1 | 10.4 | 0.00 | 0.00 | 0.00 | 40 | 1014.7 |
| 20260905021010 | 88 | 147 | 6.1 | 11.3 | 0.00 | 0.00 | 0.00 | 39 | 1014.6 |
| 20260905020505 | 88 | 141 | 5.2 | 7.8 | 0.00 | 0.00 | 0.00 | 40 | 1014.9 |
| 20260905020000 | 88 | 140 | 3.5 | 7.0 | 0.00 | 0.00 | 0.00 | 40 | 1014.7 |
| 20260905015458 | 89 | 100 | 2.6 | 7.8 | 0.00 | 0.00 | 0.00 | 39 | 1014.3 |
| 20260905014958 | 88 | 109 | 4.3 | 8.7 | 0.00 | 0.00 | 0.00 | 40 | 1014.7 |
| 20260905014453 | 88 | 125 | 3.5 | 7.0 | 0.00 | 0.00 | 0.00 | 41 | 1014.5 |
| 20260905013948 | 88 | 113 | 3.5 | 5.2 | 0.00 | 0.00 | 0.00 | 41 | 1014.6 |
| 20260905013444 | 89 | 147 | 4.3 | 6.1 | 0.00 | 0.00 | 0.00 | 41 | 1014.5 |
| 20260905012939 | 89 | 87 | 0.9 | 6.1 | 0.00 | 0.00 | 0.00 | 41 | 1014.6 |
| 20260905012434 | 88 | 132 | 1.7 | 4.3 | 0.00 | 0.00 | 0.00 | 42 | 1014.3 |
| 20260905011931 | 89 | 101 | 3.5 | 3.5 | 0.00 | 0.00 | 0.00 | 42 | 1014.6 |
| 20260905011427 | 89 | 103 | 1.7 | 3.5 | 0.00 | 0.00 | 0.00 | 42 | 1014.5 |
| 20260905010922 | 89 | 109 | 1.7 | 3.5 | 0.00 | 0.00 | 0.00 | 41 | 1014.3 |
| 20260905010417 | 89 | 119 | 3.5 | 3.5 | 0.00 | 0.00 | 0.00 | 40 | 1014.2 |
| 20260905005913 | 90 | 126 | 1.7 | 3.5 | 0.00 | 0.00 | 0.00 | 40 | 1014.1 |
| 20260905005409 | 90 | 97 | 3.5 | 5.2 | 0.00 | 0.00 | 0.00 | 39 | 1014.2 |
| 20260905004903 | 90 | 95 | 1.7 | 4.3 | 0.00 | 0.00 | 0.00 | 39 | 1014.3 |
| 20260905004403 | 91 | 108 | 1.7 | 4.3 | 0.00 | 0.00 | 0.00 | 38 | 1014.1 |
| 20260905003858 | 91 | 154 | 3.5 | 4.3 | 0.00 | 0.00 | 0.00 | 38 | 1014.1 |
| 20260905003355 | 91 | 138 | 4.3 | 6.1 | 0.00 | 0.00 | 0.00 | 37 | 1014.0 |
| 20260905002851 | 92 | 123 | 1.7 | 5.2 | 0.00 | 0.00 | 0.00 | 36 | 1014.0 |
| 20260905002349 | 93 | 74 | 1.7 | 5.2 | 0.00 | 0.00 | 0.00 | 35 | 1014.2 |
| 20260905001844 | 93 | 148 | 5.2 | 7.0 | 0.00 | 0.00 | 0.00 | 35 | 1014.0 |
| 20260905001339 | 93 | 106 | 3.5 | 6.1 | 0.00 | 0.00 | 0.00 | 33 | 1014.0 |
| 20260905000834 | 93 | 135 | 2.6 | 6.1 | 0.00 | 0.00 | 0.00 | 34 | 1014.1 |
| 20260905000330 | 93 | 112 | 2.6 | 8.7 | 0.00 | 0.00 | 0.00 | 33 | 1013.8 |
| 20260904235825 | 94 | 107 | 4.3 | 7.0 | 0.00 | 0.00 | 0.00 | 32 | 1013.9 |
| 20260904235320 | 94 | 96 | 6.1 | 8.7 | 0.00 | 0.00 | 0.00 | 31 | 1013.9 |
| 20260904234814 | 94 | 106 | 5.2 | 9.6 | 0.00 | 0.00 | 0.00 | 31 | 1014.0 |
| 20260904234309 | 95 | 124 | 3.5 | 8.7 | 0.00 | 0.00 | 0.00 | 30 | 1013.8 |
| 20260904233805 | 95 | 152 | 3.5 | 10.4 | 0.00 | 0.00 | 0.00 | 30 | 1013.6 |
| 20260904233255 | 95 | 146 | 5.2 | 9.6 | 0.00 | 0.00 | 0.00 | 31 | 1013.6 |
| 20260904232751 | 95 | 131 | 4.3 | 7.8 | 0.00 | 0.00 | 0.00 | 32 | 1013.7 |
| 20260904232248 | 96 | 144 | 7.0 | 12.2 | 0.00 | 0.00 | 0.00 | 31 | 1013.5 |
| 20260904231743 | 96 | 150 | 7.0 | 11.3 | 0.00 | 0.00 | 0.00 | 29 | 1013.6 |
| 20260904231233 | 97 | 144 | 6.1 | 7.8 | 0.00 | 0.00 | 0.00 | 29 | 1013.6 |
| 20260904230732 | 97 | 166 | 8.7 | 11.3 | 0.00 | 0.00 | 0.00 | 28 | 1013.6 |
| 20260904230226 | 97 | 150 | 7.8 | 10.4 | 0.00 | 0.00 | 0.00 | 28 | 1013.3 |
| 20260904225726 | 97 | 160 | 7.8 | 11.3 | 0.00 | 0.00 | 0.00 | 28 | 1013.2 |
| 20260904225220 | 96 | 150 | 4.3 | 13.0 | 0.00 | 0.00 | 0.00 | 29 | 1013.2 |
| 20260904224719 | 96 | 128 | 2.6 | 10.4 | 0.00 | 0.00 | 0.00 | 29 | 1013.2 |
| 20260904224215 | 95 | 150 | 7.0 | 7.8 | 0.00 | 0.00 | 0.00 | 31 | 1013.6 |
| 20260904223713 | 96 | 135 | 6.1 | 9.6 | 0.00 | 0.00 | 0.00 | 29 | 1013.6 |
| 20260904223209 | 96 | 138 | 9.6 | 11.3 | 0.00 | 0.00 | 0.00 | 29 | 1013.6 |
| 20260904222704 | 96 | 132 | 3.5 | 13.0 | 0.00 | 0.00 | 0.00 | 30 | 1013.5 |
| 20260904222200 | 98 | 111 | 5.2 | 7.8 | 0.00 | 0.00 | 0.00 | 28 | 1013.6 |
| 20260904221659 | 97 | 118 | 3.5 | 10.4 | 0.00 | 0.00 | 0.00 | 29 | 1013.6 |
| 20260904221154 | 98 | 166 | 5.2 | 11.3 | 0.00 | 0.00 | 0.00 | 28 | 1013.5 |
| 20260904220649 | 98 | 154 | 11.3 | 12.2 | 0.00 | 0.00 | 0.00 | 28 | 1013.6 |
| 20260904220144 | 98 | 143 | 7.8 | 14.8 | 0.00 | 0.00 | 0.00 | 28 | 1013.8 |
| 20260904215638 | 98 | 157 | 5.2 | 13.0 | 0.00 | 0.00 | 0.00 | 28 | 1013.9 |
| 20260904215135 | 97 | 133 | 7.8 | 9.6 | 0.00 | 0.00 | 0.00 | 29 | 1013.9 |
| 20260904214635 | 97 | 149 | 7.8 | 11.3 | 0.00 | 0.00 | 0.00 | 29 | 1014.0 |
| 20260904214131 | 97 | 147 | 6.1 | 15.6 | 0.00 | 0.00 | 0.00 | 30 | 1014.2 |
| 20260904213628 | 97 | 160 | 10.4 | 16.5 | 0.00 | 0.00 | 0.00 | 30 | 1013.8 |
| 20260904213125 | 98 | 145 | 11.3 | 16.5 | 0.00 | 0.00 | 0.00 | 29 | 1014.1 |
| 20260904212620 | 96 | 146 | 7.8 | 13.9 | 0.00 | 0.00 | 0.00 | 30 | 1013.9 |
| 20260904212115 | 95 | 118 | 10.4 | 13.9 | 0.00 | 0.00 | 0.00 | 31 | 1014.0 |
| 20260904211614 | 96 | 134 | 11.3 | 14.8 | 0.00 | 0.00 | 0.00 | 31 | 1014.1 |
| 20260904211109 | 95 | 151 | 11.3 | 14.8 | 0.00 | 0.00 | 0.00 | 32 | 1014.2 |
| 20260904210604 | 95 | 153 | 6.1 | 10.4 | 0.00 | 0.00 | 0.00 | 32 | 1014.1 |
| 20260904210100 | 96 | 145 | 9.6 | 11.3 | 0.00 | 0.00 | 0.00 | 32 | 1014.1 |
| 20260904205555 | 94 | 127 | 7.8 | 14.8 | 0.00 | 0.00 | 0.00 | 33 | 1014.5 |
| 20260904205051 | 95 | 152 | 9.6 | 18.2 | 0.00 | 0.00 | 0.00 | 32 | 1014.3 |
| 20260904204547 | 100 | 163 | 8.7 | 13.0 | 0.00 | 0.00 | 0.00 | 28 | 1014.2 |
| 20260904204043 | 99 | 182 | 8.7 | 16.5 | 0.00 | 0.00 | 0.00 | 28 | 1014.2 |
| 20260904203539 | 98 | 160 | 9.6 | 15.6 | 0.00 | 0.00 | 0.00 | 29 | 1014.2 |
| 20260904203035 | 100 | 156 | 13.9 | 14.8 | 0.00 | 0.00 | 0.00 | 29 | 1014.3 |
| 20260904202530 | 98 | 195 | 5.2 | 9.6 | 0.00 | 0.00 | 0.00 | 29 | 1014.6 |
| 20260904202026 | 98 | 169 | 4.3 | 9.6 | 0.00 | 0.00 | 0.00 | 30 | 1014.5 |
| 20260904201522 | 99 | 197 | 7.8 | 10.4 | 0.00 | 0.00 | 0.00 | 29 | 1014.7 |
| 20260904201017 | 98 | 186 | 5.2 | 7.8 | 0.00 | 0.00 | 0.00 | 29 | 1014.6 |
| 20260904200515 | 96 | 230 | 5.2 | 8.7 | 0.00 | 0.00 | 0.00 | 30 | 1014.8 |
| 20260904200011 | 99 | 203 | 6.1 | 13.9 | 0.00 | 0.00 | 0.00 | 27 | 1014.8 |
| 20260904195508 | 99 | 203 | 8.7 | 10.4 | 0.00 | 0.00 | 0.00 | 28 | 1014.9 |
| 20260904195008 | 99 | 175 | 13.9 | 15.6 | 0.00 | 0.00 | 0.00 | 29 | 1014.8 |
| 20260904194503 | 97 | 149 | 4.3 | 5.2 | 0.00 | 0.00 | 0.00 | 30 | 1014.9 |
| 20260904193957 | 98 | 169 | 4.3 | 10.4 | 0.00 | 0.00 | 0.00 | 29 | 1014.9 |
| 20260904193452 | 97 | 205 | 2.6 | 11.3 | 0.00 | 0.00 | 0.00 | 28 | 1015.0 |
| 20260904192948 | 99 | 154 | 2.6 | 10.4 | 0.00 | 0.00 | 0.00 | 28 | 1015.1 |
| 20260904192444 | 98 | 169 | 3.5 | 7.0 | 0.00 | 0.00 | 0.00 | 29 | 1015.2 |
| 20260904191940 | 97 | 100 | 5.2 | 8.7 | 0.00 | 0.00 | 0.00 | 31 | 1015.1 |
| 20260904191436 | 97 | 261 | 1.7 | 6.1 | 0.00 | 0.00 | 0.00 | 33 | 1015.2 |
| 20260904190932 | 97 | 200 | 10.4 | 11.3 | 0.00 | 0.00 | 0.00 | 31 | 1015.5 |
| 20260904190427 | 96 | 165 | 3.5 | 6.1 | 0.00 | 0.00 | 0.00 | 33 | 1015.6 |
| 20260904185923 | 96 | 65 | 2.6 | 7.0 | 0.00 | 0.00 | 0.00 | 32 | 1015.6 |
| 20260904185419 | 95 | 154 | 3.5 | 14.8 | 0.00 | 0.00 | 0.00 | 32 | 1015.6 |
| 20260904184919 | 97 | 196 | 5.2 | 9.6 | 0.00 | 0.00 | 0.00 | 32 | 1015.5 |
| 20260904184414 | 96 | 180 | 5.2 | 9.6 | 0.00 | 0.00 | 0.00 | 33 | 1015.7 |
| 20260904183909 | 98 | 170 | 1.7 | 3.5 | 0.00 | 0.00 | 0.00 | 31 | 1015.8 |
| 20260904183404 | 96 | 202 | 1.7 | 7.8 | 0.00 | 0.00 | 0.00 | 33 | 1015.8 |
| 20260904182859 | 95 | 264 | 2.6 | 10.4 | 0.00 | 0.00 | 0.00 | 34 | 1015.9 |
| 20260904182354 | 96 | 162 | 2.6 | 7.0 | 0.00 | 0.00 | 0.00 | 33 | 1015.9 |
| 20260904181849 | 96 | 208 | 7.8 | 13.0 | 0.00 | 0.00 | 0.00 | 34 | 1016.1 |
| 20260904181344 | 96 | 174 | 6.1 | 8.7 | 0.00 | 0.00 | 0.00 | 35 | 1015.9 |
| 20260904180840 | 95 | 240 | 4.3 | 10.4 | 0.00 | 0.00 | 0.00 | 34 | 1016.1 |
| 20260904180335 | 95 | 192 | 6.1 | 11.3 | 0.00 | 0.00 | 0.00 | 34 | 1016.2 |
| 20260904175834 | 95 | 154 | 2.6 | 4.3 | 0.00 | 0.00 | 0.00 | 35 | 1016.3 |
| 20260904175334 | 95 | 190 | 7.0 | 13.0 | 0.00 | 0.00 | 0.00 | 35 | 1016.5 |
| 20260904174827 | 95 | 227 | 3.5 | 4.3 | 0.00 | 0.00 | 0.00 | 34 | 1016.6 |
| 20260904174323 | 95 | 170 | 3.5 | 9.6 | 0.00 | 0.00 | 0.00 | 36 | 1016.3 |
| 20260904173819 | 94 | 237 | 2.6 | 12.2 | 0.00 | 0.00 | 0.00 | 34 | 1016.5 |
| 20260904173314 | 94 | 195 | 1.7 | 12.2 | 0.00 | 0.00 | 0.00 | 33 | 1016.6 |
| 20260904172810 | 94 | 180 | 2.6 | 7.8 | 0.00 | 0.00 | 0.00 | 35 | 1016.6 |
| 20260904172309 | 94 | 194 | 7.0 | 14.8 | 0.00 | 0.00 | 0.00 | 36 | 1016.8 |
| 20260904171804 | 94 | 150 | 4.3 | 4.3 | 0.00 | 0.00 | 0.00 | 36 | 1016.6 |
| 20260904171259 | 93 | 192 | 5.2 | 7.8 | 0.00 | 0.00 | 0.00 | 37 | 1016.7 |
| 20260904170756 | 93 | 172 | 6.1 | 8.7 | 0.00 | 0.00 | 0.00 | 39 | 1016.7 |
| 20260904170251 | 93 | 173 | 4.3 | 5.2 | 0.00 | 0.00 | 0.00 | 38 | 1016.6 |
| 20260904165750 | 92 | 218 | 5.2 | 8.7 | 0.00 | 0.00 | 0.00 | 35 | 1016.7 |
| 20260904165244 | 93 | 195 | 7.8 | 7.8 | 0.00 | 0.00 | 0.00 | 36 | 1016.8 |
| 20260904164738 | 92 | 229 | 5.2 | 7.8 | 0.00 | 0.00 | 0.00 | 39 | 1016.6 |
| 20260904164234 | 91 | 224 | 5.2 | 9.6 | 0.00 | 0.00 | 0.00 | 39 | 1016.7 |
| 20260904163730 | 92 | 244 | 6.1 | 9.6 | 0.00 | 0.00 | 0.00 | 37 | 1016.6 |
| 20260904163225 | 92 | 216 | 8.7 | 9.6 | 0.00 | 0.00 | 0.00 | 39 | 1016.6 |
| 20260904162724 | 90 | 197 | 4.3 | 8.7 | 0.00 | 0.00 | 0.00 | 39 | 1016.6 |
| 20260904162219 | 90 | 248 | 5.2 | 7.8 | 0.00 | 0.00 | 0.00 | 40 | 1016.6 |
| 20260904161715 | 89 | 219 | 7.0 | 10.4 | 0.00 | 0.00 | 0.00 | 40 | 1016.3 |
| 20260904161209 | 89 | 203 | 3.5 | 7.0 | 0.00 | 0.00 | 0.00 | 41 | 1016.5 |
| 20260904160705 | 89 | 226 | 5.2 | 9.6 | 0.00 | 0.00 | 0.00 | 42 | 1016.6 |
| 20260904160201 | 89 | 195 | 5.2 | 5.2 | 0.00 | 0.00 | 0.00 | 43 | 1016.5 |
| 20260904155655 | 88 | 194 | 5.2 | 9.6 | 0.00 | 0.00 | 0.00 | 45 | 1016.7 |
| 20260904155155 | 88 | 239 | 3.5 | 7.0 | 0.00 | 0.00 | 0.00 | 45 | 1016.3 |
| 20260904154653 | 87 | 217 | 6.1 | 7.0 | 0.00 | 0.00 | 0.00 | 48 | 1016.5 |
| 20260904154153 | 87 | 219 | 4.3 | 7.8 | 0.00 | 0.00 | 0.00 | 48 | 1016.3 |
| 20260904153649 | 86 | 241 | 3.5 | 7.0 | 0.00 | 0.00 | 0.00 | 49 | 1016.2 |
| 20260904153144 | 84 | 221 | 5.2 | 6.1 | 0.00 | 0.00 | 0.00 | 50 | 1016.3 |
| 20260904152641 | 85 | 206 | 4.3 | 7.0 | 0.00 | 0.00 | 0.00 | 50 | 1016.2 |
| 20260904152136 | 84 | 213 | 5.2 | 6.1 | 0.00 | 0.00 | 0.00 | 50 | 1016.2 |
| 20260904151630 | 84 | 236 | 3.5 | 7.0 | 0.00 | 0.00 | 0.00 | 50 | 1016.0 |
| 20260904151129 | 84 | 215 | 3.5 | 7.8 | 0.00 | 0.00 | 0.00 | 49 | 1016.1 |
| 20260904150625 | 84 | 210 | 5.2 | 5.2 | 0.00 | 0.00 | 0.00 | 50 | 1016.2 |
| 20260904150120 | 83 | 225 | 2.6 | 6.1 | 0.00 | 0.00 | 0.00 | 51 | 1016.3 |
| 20260904145618 | 83 | 200 | 4.3 | 7.0 | 0.00 | 0.00 | 0.00 | 49 | 1016.3 |
| 20260904145114 | 82 | 201 | 2.6 | 7.0 | 0.00 | 0.00 | 0.00 | 49 | 1016.2 |
| 20260904144609 | 82 | 195 | 3.5 | 4.3 | 0.00 | 0.00 | 0.00 | 52 | 1016.3 |
| 20260904144105 | 82 | 167 | 3.5 | 5.2 | 0.00 | 0.00 | 0.00 | 55 | 1016.2 |
| 20260904143601 | 81 | 171 | 3.5 | 4.3 | 0.00 | 0.00 | 0.00 | 54 | 1016.3 |
| 20260904143057 | 80 | 168 | 2.6 | 5.2 | 0.00 | 0.00 | 0.00 | 55 | 1016.3 |
| 20260904142554 | 80 | 152 | 3.5 | 4.3 | 0.00 | 0.00 | 0.00 | 56 | 1016.3 |
| 20260904142053 | 80 | 156 | 1.7 | 2.6 | 0.00 | 0.00 | 0.00 | 57 | 1016.3 |
| 20260904141549 | 79 | 147 | 1.7 | 1.7 | 0.00 | 0.00 | 0.00 | 59 | 1016.2 |
| 20260904141044 | 78 | 188 | 1.7 | 1.7 | 0.00 | 0.00 | 0.00 | 59 | 1016.1 |
| 20260904140539 | 78 | 234 | 0.9 | 1.7 | 0.00 | 0.00 | 0.00 | 61 | 1016.2 |
| 20260904140033 | 78 | 268 | 0.0 | 1.7 | 0.00 | 0.00 | 0.00 | 60 | 1015.9 |
| 20260904135533 | 81 | 103 | 0.0 | 0.0 | 0.00 | 0.00 | 0.00 | 58 | 1016.2 |
| 20260904135029 | 80 | 62 | 0.0 | 0.9 | 0.00 | 0.00 | 0.00 | 61 | 1016.1 |
| 20260904134524 | 77 | 22 | 0.0 | 0.9 | 0.00 | 0.00 | 0.00 | 65 | 1016.0 |
| 20260904134019 | 75 | 116 | 0.0 | 0.9 | 0.00 | 0.00 | 0.00 | 68 | 1015.9 |
| 20260904133513 | 74 | 122 | 0.9 | 1.7 | 0.00 | 0.00 | 0.00 | 69 | 1016.1 |
| 20260904133009 | 74 | 145 | 0.0 | 1.7 | 0.00 | 0.00 | 0.00 | 71 | 1016.0 |
| 20260904132504 | 72 | 142 | 0.0 | 0.9 | 0.00 | 0.00 | 0.00 | 75 | 1016.0 |
| 20260904132003 | 70 | 89 | 0.0 | 0.9 | 0.00 | 0.00 | 0.00 | 78 | 1015.8 |
| 20260904131458 | 69 | 130 | 0.0 | 1.7 | 0.00 | 0.00 | 0.00 | 81 | 1015.9 |
| 20260904130954 | 68 | 105 | 0.9 | 1.7 | 0.00 | 0.00 | 0.00 | 84 | 1015.6 |
| 20260904130453 | 66 | 92 | 0.0 | 1.7 | 0.00 | 0.00 | 0.00 | 84 | 1015.9 |
| 20260904125949 | 66 | 66 | 0.0 | 0.9 | 0.00 | 0.00 | 0.00 | 85 | 1015.7 |
| 20260904125444 | 66 | 134 | 0.9 | 1.7 | 0.00 | 0.00 | 0.00 | 85 | 1015.6 |
| 20260904124943 | 66 | 161 | 1.7 | 1.7 | 0.00 | 0.00 | 0.00 | 85 | 1015.5 |
| 20260904124440 | 66 | 156 | 0.0 | 1.7 | 0.00 | 0.00 | 0.00 | 86 | 1015.6 |
| 20260904123935 | 66 | 156 | 1.7 | 2.6 | 0.00 | 0.00 | 0.00 | 85 | 1015.5 |
| 20260904123431 | 66 | 162 | 1.7 | 2.6 | 0.00 | 0.00 | 0.00 | 84 | 1015.6 |
| 20260904122926 | 67 | 192 | 1.7 | 3.5 | 0.00 | 0.00 | 0.00 | 84 | 1015.1 |
| 20260904122426 | 65 | 195 | 2.6 | 3.5 | 0.00 | 0.00 | 0.00 | 86 | 1015.2 |
| 20260904121920 | 65 | 178 | 2.6 | 3.5 | 0.00 | 0.00 | 0.00 | 85 | 1015.0 |
| 20260904121417 | 66 | 159 | 1.7 | 2.6 | 0.00 | 0.00 | 0.00 | 83 | 1015.1 |
| 20260904120913 | 68 | 199 | 2.6 | 3.5 | 0.00 | 0.00 | 0.00 | 81 | 1015.2 |
| 20260904120409 | 67 | 216 | 1.7 | 1.7 | 0.00 | 0.00 | 0.00 | 82 | 1015.1 |
| 20260904115904 | 67 | 299 | 0.9 | 1.7 | 0.00 | 0.00 | 0.00 | 82 | 1015.2 |
| 20260904115359 | 67 | 129 | 0.0 | 0.9 | 0.00 | 0.00 | 0.00 | 82 | 1015.1 |
| 20260904114853 | 67 | 145 | 0.9 | 1.7 | 0.00 | 0.00 | 0.00 | 82 | 1014.9 |
| 20260904114348 | 67 | 202 | 1.7 | 1.7 | 0.00 | 0.00 | 0.00 | 83 | 1015.1 |
| 20260904113843 | 67 | 142 | 1.7 | 2.6 | 0.00 | 0.00 | 0.00 | 82 | 1015.0 |
| 20260904113343 | 67 | 191 | 1.7 | 2.6 | 0.00 | 0.00 | 0.00 | 82 | 1015.1 |
| 20260904112837 | 68 | 169 | 2.6 | 3.5 | 0.00 | 0.00 | 0.00 | 80 | 1014.9 |
| 20260904112333 | 68 | 148 | 2.6 | 4.3 | 0.00 | 0.00 | 0.00 | 80 | 1015.1 |
| 20260904111828 | 69 | 154 | 3.5 | 3.5 | 0.00 | 0.00 | 0.00 | 79 | 1015.1 |
| 20260904111324 | 69 | 198 | 4.3 | 6.1 | 0.00 | 0.00 | 0.00 | 77 | 1015.1 |
| 20260904110820 | 69 | 173 | 2.6 | 3.5 | 0.00 | 0.00 | 0.00 | 78 | 1015.1 |
| 20260904110319 | 70 | 186 | 3.5 | 4.3 | 0.00 | 0.00 | 0.00 | 77 | 1015.0 |
| 20260904105813 | 71 | 168 | 4.3 | 5.2 | 0.00 | 0.00 | 0.00 | 74 | 1014.8 |
| 20260904105308 | 71 | 139 | 3.5 | 5.2 | 0.00 | 0.00 | 0.00 | 73 | 1014.7 |
| 20260904104803 | 72 | 156 | 4.3 | 5.2 | 0.00 | 0.00 | 0.00 | 72 | 1014.7 |
| 20260904104259 | 72 | 164 | 4.3 | 6.1 | 0.00 | 0.00 | 0.00 | 72 | 1014.8 |
| 20260904103756 | 72 | 141 | 4.3 | 6.1 | 0.00 | 0.00 | 0.00 | 72 | 1014.7 |
| 20260904103255 | 72 | 158 | 7.0 | 8.7 | 0.00 | 0.00 | 0.00 | 72 | 1014.7 |
| 20260904102751 | 72 | 161 | 6.1 | 7.0 | 0.00 | 0.00 | 0.00 | 72 | 1014.7 |
| 20260904102246 | 71 | 146 | 5.2 | 7.0 | 0.00 | 0.00 | 0.00 | 73 | 1014.8 |
| 20260904101742 | 71 | 147 | 6.1 | 6.1 | 0.00 | 0.00 | 0.00 | 72 | 1014.6 |
| 20260904101238 | 71 | 146 | 4.3 | 7.0 | 0.00 | 0.00 | 0.00 | 72 | 1014.5 |
| 20260904100734 | 72 | 148 | 5.2 | 6.1 | 0.00 | 0.00 | 0.00 | 72 | 1014.5 |
| 20260904100230 | 72 | 147 | 4.3 | 7.0 | 0.00 | 0.00 | 0.00 | 71 | 1014.3 |
| 20260904095729 | 72 | 140 | 3.5 | 6.1 | 0.00 | 0.00 | 0.00 | 71 | 1014.3 |
| 20260904095224 | 72 | 134 | 5.2 | 7.0 | 0.00 | 0.00 | 0.00 | 70 | 1014.5 |
| 20260904094720 | 73 | 133 | 5.2 | 7.8 | 0.00 | 0.00 | 0.00 | 69 | 1014.3 |
| 20260904094219 | 73 | 143 | 7.0 | 8.7 | 0.00 | 0.00 | 0.00 | 69 | 1014.1 |
| 20260904093716 | 73 | 138 | 5.2 | 10.4 | 0.00 | 0.00 | 0.00 | 69 | 1014.2 |
| 20260904093215 | 73 | 138 | 7.8 | 10.4 | 0.00 | 0.00 | 0.00 | 68 | 1014.1 |
| 20260904092711 | 73 | 136 | 6.1 | 9.6 | 0.00 | 0.00 | 0.00 | 68 | 1014.1 |
| 20260904092207 | 73 | 126 | 7.0 | 10.4 | 0.00 | 0.00 | 0.00 | 68 | 1014.1 |
| 20260904091703 | 73 | 131 | 7.8 | 9.6 | 0.00 | 0.00 | 0.00 | 68 | 1014.3 |
| 20260904091158 | 73 | 134 | 5.2 | 9.6 | 0.00 | 0.00 | 0.00 | 67 | 1013.9 |
| 20260904090654 | 73 | 140 | 6.1 | 9.6 | 0.00 | 0.00 | 0.00 | 66 | 1014.5 |
| 20260904090149 | 73 | 148 | 6.1 | 10.4 | 0.00 | 0.00 | 0.00 | 67 | 1014.5 |
| 20260904085644 | 73 | 150 | 7.8 | 10.4 | 0.00 | 0.00 | 0.00 | 67 | 1014.1 |
| 20260904085143 | 73 | 151 | 6.1 | 8.7 | 0.00 | 0.00 | 0.00 | 67 | 1014.1 |
| 20260904084639 | 73 | 148 | 5.2 | 6.1 | 0.00 | 0.00 | 0.00 | 68 | 1014.3 |
| 20260904084135 | 73 | 156 | 6.1 | 7.8 | 0.00 | 0.00 | 0.00 | 67 | 1014.5 |
| 20260904083631 | 74 | 147 | 5.2 | 10.4 | 0.00 | 0.00 | 0.00 | 66 | 1014.5 |
| 20260904083127 | 74 | 160 | 6.1 | 8.7 | 0.00 | 0.00 | 0.00 | 65 | 1014.6 |
| 20260904082621 | 74 | 144 | 7.8 | 10.4 | 0.00 | 0.00 | 0.00 | 64 | 1014.6 |
| 20260904082117 | 74 | 148 | 7.0 | 11.3 | 0.00 | 0.00 | 0.00 | 64 | 1014.5 |
| 20260904081612 | 74 | 153 | 5.2 | 10.4 | 0.00 | 0.00 | 0.00 | 64 | 1014.5 |
| 20260904081108 | 74 | 153 | 5.2 | 8.7 | 0.00 | 0.00 | 0.00 | 64 | 1014.3 |
| 20260904080603 | 74 | 148 | 7.0 | 10.4 | 0.00 | 0.00 | 0.00 | 64 | 1014.6 |
| 20260904080059 | 74 | 151 | 9.6 | 11.3 | 0.00 | 0.00 | 0.00 | 63 | 1014.3 |
| 20260904075555 | 75 | 148 | 6.1 | 9.6 | 0.00 | 0.00 | 0.00 | 63 | 1014.2 |
| 20260904075050 | 75 | 145 | 7.8 | 10.4 | 0.00 | 0.00 | 0.00 | 62 | 1014.5 |
| 20260904074548 | 75 | 140 | 6.1 | 11.3 | 0.00 | 0.00 | 0.00 | 61 | 1014.6 |
| 20260904074038 | 75 | 156 | 5.2 | 10.4 | 0.00 | 0.00 | 0.00 | 62 | 1014.3 |
| 20260904073533 | 76 | 139 | 6.1 | 8.7 | 0.00 | 0.00 | 0.00 | 62 | 1014.2 |
| 20260904073030 | 76 | 149 | 7.8 | 9.6 | 0.00 | 0.00 | 0.00 | 61 | 1014.5 |
| 20260904072525 | 76 | 159 | 7.8 | 11.3 | 0.00 | 0.00 | 0.00 | 62 | 1014.3 |
| 20260904072020 | 75 | 154 | 10.4 | 12.2 | 0.00 | 0.00 | 0.00 | 62 | 1014.5 |
| 20260904071515 | 75 | 159 | 7.8 | 12.2 | 0.00 | 0.00 | 0.00 | 63 | 1014.3 |
| 20260904071010 | 75 | 156 | 7.0 | 11.3 | 0.00 | 0.00 | 0.00 | 64 | 1014.6 |
| 20260904070509 | 74 | 158 | 7.8 | 9.6 | 0.00 | 0.00 | 0.00 | 65 | 1014.7 |
| 20260904070004 | 73 | 162 | 7.0 | 8.7 | 0.00 | 0.00 | 0.00 | 68 | 1014.6 |
| 20260904065459 | 72 | 157 | 4.3 | 7.0 | 0.00 | 0.00 | 0.00 | 71 | 1014.6 |
| 20260904064955 | 72 | 155 | 5.2 | 7.0 | 0.00 | 0.00 | 0.00 | 72 | 1014.6 |
| 20260904064451 | 72 | 169 | 5.2 | 6.1 | 0.00 | 0.00 | 0.00 | 70 | 1014.7 |
| 20260904063945 | 73 | 168 | 5.2 | 7.8 | 0.00 | 0.00 | 0.00 | 69 | 1014.8 |
| 20260904063442 | 73 | 153 | 4.3 | 9.6 | 0.00 | 0.00 | 0.00 | 68 | 1014.8 |
| 20260904062937 | 74 | 149 | 5.2 | 9.6 | 0.00 | 0.00 | 0.00 | 67 | 1014.7 |
| 20260904062433 | 73 | 157 | 6.1 | 9.6 | 0.00 | 0.00 | 0.00 | 68 | 1014.8 |
| 20260904061928 | 74 | 156 | 10.4 | 11.3 | 0.00 | 0.00 | 0.00 | 67 | 1014.8 |
| 20260904061425 | 73 | 157 | 7.0 | 10.4 | 0.00 | 0.00 | 0.00 | 68 | 1015.0 |
| 20260904060921 | 73 | 149 | 6.1 | 10.4 | 0.00 | 0.00 | 0.00 | 69 | 1015.0 |
| 20260904060416 | 73 | 159 | 8.7 | 10.4 | 0.00 | 0.00 | 0.00 | 68 | 1014.9 |
| 20260904055912 | 73 | 153 | 8.7 | 11.3 | 0.00 | 0.00 | 0.00 | 68 | 1014.9 |
| 20260904055407 | 73 | 160 | 7.0 | 10.4 | 0.00 | 0.00 | 0.00 | 69 | 1015.0 |
| 20260904054903 | 73 | 140 | 6.1 | 10.4 | 0.00 | 0.00 | 0.00 | 69 | 1014.9 |
| 20260904054358 | 72 | 154 | 5.2 | 9.6 | 0.00 | 0.00 | 0.00 | 71 | 1014.9 |
| 20260904053854 | 73 | 160 | 7.8 | 11.3 | 0.00 | 0.00 | 0.00 | 71 | 1015.1 |
| 20260904053353 | 73 | 152 | 7.0 | 10.4 | 0.00 | 0.00 | 0.00 | 71 | 1015.0 |
| 20260904052849 | 73 | 157 | 8.7 | 10.4 | 0.00 | 0.00 | 0.00 | 71 | 1015.1 |
| 20260904052345 | 73 | 160 | 7.0 | 11.3 | 0.00 | 0.00 | 0.00 | 70 | 1015.1 |
| 20260904051841 | 74 | 155 | 7.8 | 13.0 | 0.00 | 0.00 | 0.00 | 68 | 1015.1 |
| 20260904051337 | 74 | 157 | 5.2 | 8.7 | 0.00 | 0.00 | 0.00 | 68 | 1015.1 |
| 20260904050836 | 74 | 151 | 4.3 | 9.6 | 0.00 | 0.00 | 0.00 | 67 | 1015.0 |
| 20260904050333 | 74 | 140 | 6.1 | 8.7 | 0.00 | 0.00 | 0.00 | 67 | 1014.9 |
| 20260904045827 | 74 | 128 | 6.1 | 9.6 | 0.00 | 0.26 | 0.26 | 67 | 1014.8 |
| 20260904045322 | 74 | 128 | 11.3 | 13.0 | 0.00 | 0.26 | 0.26 | 66 | 1014.9 |
| 20260904044817 | 73 | 132 | 7.0 | 10.4 | 0.00 | 0.26 | 0.26 | 66 | 1015.1 |
| 20260904044314 | 73 | 140 | 7.8 | 11.3 | 0.00 | 0.26 | 0.26 | 66 | 1014.8 |
| 20260904043809 | 74 | 144 | 7.8 | 9.6 | 0.00 | 0.26 | 0.26 | 64 | 1014.8 |
| 20260904043306 | 75 | 145 | 8.7 | 13.0 | 0.00 | 0.26 | 0.26 | 62 | 1015.0 |
| 20260904042801 | 75 | 135 | 5.2 | 12.2 | 0.00 | 0.26 | 0.26 | 62 | 1015.2 |
| 20260904042257 | 75 | 127 | 9.6 | 13.0 | 0.00 | 0.26 | 0.26 | 61 | 1015.0 |
| 20260904041756 | 75 | 143 | 7.8 | 12.2 | 0.00 | 0.26 | 0.26 | 61 | 1015.2 |
| 20260904041253 | 76 | 121 | 6.1 | 12.2 | 0.00 | 0.26 | 0.26 | 59 | 1015.0 |
| 20260904040748 | 76 | 128 | 13.0 | 15.6 | 0.00 | 0.26 | 0.26 | 57 | 1015.0 |
| 20260904040244 | 75 | 127 | 3.5 | 11.3 | 0.00 | 0.26 | 0.26 | 60 | 1015.0 |
| 20260904035740 | 76 | 95 | 2.6 | 7.8 | 0.00 | 0.26 | 0.26 | 60 | 1015.2 |
| 20260904035235 | 76 | 144 | 6.1 | 9.6 | 0.00 | 0.26 | 0.26 | 59 | 1014.8 |
| 20260904034734 | 75 | 116 | 5.2 | 11.3 | 0.00 | 0.26 | 0.26 | 61 | 1015.3 |
| 20260904034230 | 76 | 131 | 9.6 | 11.3 | 0.00 | 0.26 | 0.26 | 61 | 1015.1 |
| 20260904033725 | 75 | 118 | 5.2 | 11.3 | 0.00 | 0.26 | 0.26 | 62 | 1015.2 |
| 20260904033222 | 75 | 127 | 4.3 | 7.0 | 0.00 | 0.26 | 0.26 | 62 | 1015.0 |
| 20260904032718 | 75 | 106 | 4.3 | 7.0 | 0.00 | 0.26 | 0.26 | 63 | 1015.1 |
| 20260904032217 | 75 | 98 | 3.5 | 6.1 | 0.00 | 0.26 | 0.26 | 63 | 1014.9 |
| 20260904031712 | 74 | 108 | 2.6 | 7.0 | 0.00 | 0.26 | 0.26 | 65 | 1015.0 |
| 20260904031207 | 74 | 109 | 6.1 | 7.8 | 0.00 | 0.26 | 0.26 | 66 | 1015.0 |
| 20260904030703 | 75 | 88 | 4.3 | 7.0 | 0.00 | 0.26 | 0.26 | 63 | 1014.9 |
| 20260904030158 | 76 | 106 | 6.1 | 10.4 | 0.00 | 0.26 | 0.26 | 61 | 1014.8 |